Lid_Strength_Index
13 13 13 13 13 14 16 13 17 15 15 14 13 12 11 10 10 10 10 10 10 10 11 11 12 12 12 13 13 13 13 14 14 15 15 15 15 15 15 15 15 15 15 14
16 13 13 14 13 12 13 14 13 14 14 13 13 12 11 11 10 11 11 11 10 11 11 12 13 13 13 13 14 14 14 15 15 14 15 15 15 15 15 15 15 15 15 15
17 14 14 17 14 14 13 12 13 16 13 14 12 11 11 10 9 10 10 11 11 12 12 13 13 13 14 14 15 15 15 15 15 15 15 16 16 16 16 16 16 16 15 15
17 15 19 15 11 11 12 11 10 12 12 12 11 10 9 9 10 10 11 12 12 13 14 14 14 14 14 15 15 15 16 15 15 15 16 16 16 16 16 16 16 16 16 15
17 18 16 15 14 13 13 14 11 11 13 12 12 12 13 10 10 12 12 13 13 14 15 14 14 15 15 16 16 16 16 16 16 15 16 16 16 16 16 16 16 16 15 15
15 17 19 16 14 12 11 15 11 10 12 12 11 14 15 12 13 14 14 14 15 15 15 15 16 16 16 17 17 16 16 15 15 15 16 16 16 16 16 16 16 15 14 14
16 17 16 14 13 11 16 16 12 10 11 11 12 12 13 13 15 15 15 16 15 15 15 16 16 16 17 17 16 15 15 15 15 16 16 16 16 16 16 16 16 16 15 15
16 20 19 14 13 15 15 13 12 10 10 13 14 14 15 15 16 16 16 15 15 16 16 16 16 16 16 16 15 15 15 16 16 16 16 15 16 16 16 16 16 16 15 14
13 15 15 14 14 13 12 13 13 13 13 13 16 16 16 17 17 16 16 16 15 16 16 16 16 16 17 16 15 16 16 17 17 17 16 16 16 16 16 16 16 15 14 14
15 16 16 14 13 13 12 12 12 13 15 15 16 16 17 16 16 16 16 16 16 16 16 17 16 16 16 16 16 17 17 17 17 17 16 16 15 15 15 15 15 14 14 14
18 17 15 15 14 14 13 14 14 14 14 16 16 16 16 16 16 16 16 16 15 16 16 16 16 16 16 16 16 17 17 17 17 16 16 16 15 15 14 14 13 13 13 13
18 15 15 16 15 14 14 15 14 15 15 15 15 16 16 16 16 16 16 15 15 16 16 16 16 17 17 16 17 17 17 17 16 16 16 16 16 14 11 11 11 11 11 11
16 13 15 15 14 14 15 15 15 15 15 15 15 15 15 15 15 14 15 15 16 16 16 17 17 17 16 16 16 16 17 16 15 15 15 15 14 15 15 14 12 11 10 9
14 15 17 15 16 15 15 15 14 15 15 15 15 14 14 15 15 16 16 16 15 16 16 17 17 17 16 16 16 16 16 13 15 15 14 14 15 15 15 15 14 13 10 8
15 15 16 15 15 16 15 15 16 16 16 16 15 15 15 16 16 16 15 15 16 17 17 17 17 17 15 15 15 15 14 14 14 14 14 13 14 15 15 13 12 12 11 9
15 15 15 16 16 16 16 16 17 17 16 16 16 16 16 15 15 16 16 16 17 17 17 16 16 16 15 14 15 13 13 12 12 14 14 14 14 13 12 11 11 12 12 11
16 16 16 16 16 16 16 16 16 16 16 16 16 15 15 15 16 16 16 16 16 16 16 15 16 14 14 14 13 13 14 13 12 14 14 13 13 11 10 10 11 11 11 10
14 14 14 15 16 16 16 16 16 16 16 15 15 15 16 16 16 16 16 16 17 17 15 15 14 14 13 12 12 14 14 13 13 13 12 12 11 10 10 10 10 12 11 10
15 15 15 15 15 15 16 16 15 15 15 15 15 16 16 16 16 16 17 17 17 17 16 14 12 12 12 12 12 12 13 13 13 12 11 10 10 10 10 11 11 11 11 10
15 15 15 15 15 15 16 15 15 15 15 15 15 16 16 16 17 17 17 17 17 16 14 13 13 12 12 12 12 14 12 11 11 11 10 11 11 11 11 10 11 11 11 10
15 15 15 15 16 15 15 15 15 15 15 15 16 16 17 17 17 16 17 18 16 13 13 12 12 12 11 13 13 11 10 10 10 11 11 11 11 11 11 11 11 11 12 12
16 16 16 16 16 16 16 15 15 15 16 16 16 16 17 17 16 16 15 16 14 12 12 13 11 11 13 11 12 10 10 11 11 11 12 11 11 11 11 12 12 12 12 15
16 15 15 16 16 16 16 16 16 16 16 16 16 16 16 16 16 18 18 14 14 12 13 12 10 10 9 11 10 11 11 11 12 12 12 11 11 12 12 12 12 12 12 13
15 15 16 15 16 16 17 16 16 16 15 15 15 15 16 18 17 15 14 12 12 11 11 10 9 9 10 10 11 11 11 11 12 12 12 11 12 12 12 12 14 13 13 13
16 16 16 16 16 16 16 17 17 17 16 16 15 15 15 15 17 14 14 12 10 10 10 8 8 9 10 11 11 11 11 11 11 11 12 12 12 12 12 13 14 12 12 12
15 16 16 16 16 17 16 16 16 16 16 17 16 15 15 14 13 12 11 10 11 9 10 11 11 10 11 13 11 11 11 12 12 12 11 12 11 12 13 14 14 14 13 12
15 13 16 16 15 15 14 14 16 17 15 14 15 14 13 12 12 12 11 12 12 12 12 12 12 13 11 11 11 12 12 12 12 12 12 11 11 11 13 13 14 15 13 12